User: anonymous   Login
Location: Juniper Campground
(35.7953°N, 106.2814°W)
Time: 12:59:55
(UTC-06:00)
Language:

Envisat - Orbit

View from above orbital plane
View from above orbital plane
View from above satellite
View from above satellite

Ground track
Ground track

The orbit data is extracted from the following two-line orbital elements,

1 27386U 02009A   19109.55788289  .00000006  00000-0  15597-4 0  9996
2 27386  98.1545 133.6434 0001420  90.6980  20.8355 14.37946282897556
Epoch (UTC): 19 April 2019 13:23:21
Eccentricity: 0.0001420
inclination: 98.1545°
perigee height: 764 km
apogee height: 766 km
right ascension of ascending node: 133.6434°
argument of perigee: 90.6980°
revolutions per day: 14.37946282
mean anomaly at epoch: 20.8355°
orbit number at epoch: 89755

The dashed part of the orbit path shows where the satellite is in the earth's shadow,  

DLR